Hyannis, MA

9:09 AM EDT on March 23, 2017 (GMT -0400)
Barnstable Municipal-Boardman-Polando Field

Weather History for KHYA - November, 2011

Change the Weather History Date:

Friday, November 18, 2011

  Actual Average Record
Temperature  
Mean Temperature 36 °F -  
Max Temperature 45 °F 52 °F 67 °F (1953)
Min Temperature 28 °F 36 °F 18 °F (1936)
Degree Days  
Heating Degree Days 28    
Moisture  
Dew Point 24 °F    
Average Humidity 58    
Maximum Humidity 88    
Minimum Humidity 37    
Precipitation  
Precipitation 0.00 in - - ()
Sea Level Pressure  
Sea Level Pressure 30.23 in    
Wind  
Wind Speed 10 mph (WNW)    
Max Wind Speed 15 mph    
Max Gust Speed 26 mph    
Visibility 9 miles    
Events      
Averages and records for this station are not official NWS values.
T = Trace of Precipitation, MM = Missing Value Source: NWS Daily Summary

Daily Weather History Graph

Daily Weather History Graph

Search for Another Location

Airport or City:

Trip Planner

Search our weather history database for the weather conditions in past years. The results will help you decide how hot, cold, wet, or windy it might be!

Date:

Astronomy

Nov. 18, 2011 Rise Set
Actual Time 6:33 AM EST 4:18 PM EST
Civil Twilight 6:03 AM EST 4:48 PM EST
Nautical Twilight 5:29 AM EST 5:22 PM EST
Astronomical Twilight 4:56 AM EST 5:55 PM EST
Moon 11:46 PM EST (11/18) 12:08 PM EST (11/18)
Length of Visible Light 10h 45m
Length of Day
9h 45m
Waning Gibbous, 49% of the Moon is Illuminated
Nov 18
Waning Gibbous
Nov 25
New
Dec 2
First Quarter
Dec 10
Full
Dec 17
Last Quarter

Hourly Weather History & Observations

Time (EST) Temp. Windchill Dew Point Humidity Pressure Visibility Wind Dir Wind Speed Gust Speed Precip Events Conditions
1:56 AM 35.6 °F 27.5 °F 28.4 °F 75% 29.94 in 10.0 mi West 11.5 mph - N/A   Clear
2:56 AM 36.0 °F 29.6 °F 27.0 °F 70% 29.97 in 10.0 mi WNW 8.1 mph - N/A   Clear
3:56 AM 36.0 °F 29.0 °F 26.1 °F 67% 30.01 in 10.0 mi West 9.2 mph - N/A   Clear
4:56 AM 36.0 °F 28.0 °F 25.0 °F 64% 30.05 in 10.0 mi West 11.5 mph 19.6 mph N/A   Clear
5:56 AM 35.1 °F 26.9 °F 25.0 °F 67% 30.08 in 10.0 mi West 11.5 mph 19.6 mph N/A   Clear
6:56 AM 35.1 °F 26.4 °F 25.0 °F 67% 30.12 in 10.0 mi West 12.7 mph 18.4 mph N/A   Clear
7:56 AM 37.0 °F 29.3 °F 25.0 °F 62% 30.17 in 10.0 mi West 11.5 mph - N/A   Clear
8:56 AM 39.9 °F 32.1 °F 24.1 °F 53% 30.19 in 2.5 mi WNW 13.8 mph 19.6 mph N/A   Haze
9:05 AM 39.2 °F 31.6 °F 24.8 °F 56% 30.18 in 10.0 mi WNW 12.7 mph 21.9 mph N/A   Clear
9:21 AM 41.0 °F 33.5 °F 24.8 °F 53% 30.19 in 1.8 mi WNW 13.8 mph 21.9 mph N/A   Haze
9:36 AM 41.0 °F 33.1 °F 23.0 °F 49% 30.20 in 2.5 mi West 15.0 mph 23.0 mph N/A   Haze
9:43 AM 41.0 °F 34.3 °F 21.2 °F 45% 30.20 in 10.0 mi WNW 11.5 mph - N/A   Clear
9:56 AM 42.1 °F 35.7 °F 23.0 °F 47% 30.21 in 10.0 mi West 11.5 mph 19.6 mph N/A   Clear
10:22 AM 42.8 °F 35.4 °F 21.2 °F 42% 30.22 in 4.0 mi WNW 15.0 mph 23.0 mph N/A   Haze
10:56 AM 43.0 °F 36.0 °F 19.9 °F 40% 30.22 in 10.0 mi NW 13.8 mph 26.5 mph N/A   Clear
11:56 AM 44.6 °F 39.7 °F 21.2 °F 39% 30.21 in 10.0 mi WNW 9.2 mph 23.0 mph N/A   Clear
12:56 PM 45.0 °F 38.9 °F 21.0 °F 39% 30.24 in 10.0 mi WNW 12.7 mph 19.6 mph N/A   Clear
1:56 PM 45.0 °F 39.7 °F 19.9 °F 37% 30.25 in 10.0 mi WNW 10.4 mph 19.6 mph N/A   Clear
2:56 PM 45.0 °F 40.6 °F 21.9 °F 40% 30.28 in 10.0 mi WNW 8.1 mph 17.3 mph N/A   Clear
3:56 PM 43.0 °F 39.5 °F 21.9 °F 43% 30.30 in 10.0 mi West 5.8 mph - N/A   Clear
4:56 PM 39.9 °F 35.1 °F 23.0 °F 51% 30.32 in 10.0 mi WNW 6.9 mph - N/A   Clear
5:56 PM 37.0 °F 32.4 °F 24.1 °F 59% 30.35 in 10.0 mi West 5.8 mph - N/A   Clear
6:56 PM 37.0 °F 34.5 °F 24.1 °F 59% 30.37 in 10.0 mi WNW 3.5 mph - N/A   Clear
7:56 PM 32.0 °F - 23.0 °F 69% 30.40 in 10.0 mi Calm Calm - N/A   Clear
8:56 PM 28.9 °F - 23.0 °F 78% 30.42 in 10.0 mi Calm Calm - N/A   Clear
9:56 PM 28.0 °F 24.2 °F 23.0 °F 81% 30.41 in 10.0 mi NNE 3.5 mph - N/A   Clear
10:56 PM 28.9 °F - 25.0 °F 85% 30.42 in 10.0 mi Calm Calm - N/A   Clear
11:56 PM 28.0 °F - 25.0 °F 88% 30.42 in 10.0 mi Calm Calm - N/A   Clear